TimeCST,TemperatureF,Dew PointF,Humidity,Sea Level PressureIn,VisibilityMPH,Wind Direction,Wind SpeedMPH,Gust SpeedMPH,PrecipitationIn,Events,Conditions,WindDirDegrees,DateUTC
12:55 AM,-9999,-9999,N/A,30.09,10.0,WNW,28.8,35.7,N/A,,Clear,290,2013-01-20 06:55:00
1:15 AM,19.4,5.0,54,30.11,10.0,WNW,25.3,28.8,N/A,,Clear,290,2013-01-20 07:15:00
1:35 AM,17.6,5.0,58,30.11,10.0,WNW,24.2,31.1,N/A,,Clear,300,2013-01-20 07:35:00
1:55 AM,17.6,5.0,58,30.13,10.0,NW,19.6,31.1,N/A,,Clear,310,2013-01-20 07:55:00
2:15 AM,17.6,3.2,53,30.16,10.0,WNW,17.3,31.1,N/A,,Clear,300,2013-01-20 08:15:00
2:35 AM,17.6,5.0,58,30.18,10.0,WNW,23.0,29.9,N/A,,Clear,300,2013-01-20 08:35:00
2:55 AM,15.8,3.2,58,30.19,10.0,NW,20.7,28.8,N/A,,Clear,310,2013-01-20 08:55:00
3:15 AM,15.8,3.2,58,30.20,10.0,WNW,18.4,24.2,N/A,,Clear,290,2013-01-20 09:15:00
3:35 AM,15.8,1.4,53,30.21,10.0,WNW,16.1,26.5,N/A,,Clear,300,2013-01-20 09:35:00
3:55 AM,14.0,1.4,57,30.21,10.0,WNW,17.3,21.9,N/A,,Clear,300,2013-01-20 09:55:00
4:15 AM,14.0,3.2,62,30.22,10.0,WNW,16.1,19.6,N/A,,Clear,300,2013-01-20 10:15:00
4:35 AM,12.2,3.2,67,30.22,10.0,WNW,19.6,25.3,N/A,,Clear,300,2013-01-20 10:35:00
4:55 AM,12.2,1.4,62,30.23,10.0,WNW,13.8,-,N/A,,Clear,300,2013-01-20 10:55:00
5:15 AM,12.2,3.2,67,30.24,10.0,WNW,16.1,24.2,N/A,,Clear,300,2013-01-20 11:15:00
5:35 AM,12.2,1.4,62,30.25,10.0,WNW,16.1,24.2,N/A,,Clear,300,2013-01-20 11:35:00
5:55 AM,12.2,1.4,62,30.25,10.0,WNW,16.1,20.7,N/A,,Clear,290,2013-01-20 11:55:00
6:15 AM,12.2,1.4,62,30.27,10.0,WNW,11.5,-,N/A,,Clear,300,2013-01-20 12:15:00
6:35 AM,10.4,1.4,67,30.28,10.0,WNW,12.7,-,N/A,,Clear,300,2013-01-20 12:35:00
7:15 AM,10.4,1.4,67,30.29,10.0,NW,11.5,-,N/A,,Clear,310,2013-01-20 13:15:00
7:35 AM,10.4,1.4,67,30.30,10.0,WNW,15.0,-,N/A,,Clear,290,2013-01-20 13:35:00
7:55 AM,10.4,-0.4,62,30.30,10.0,NW,15.0,-,N/A,,Clear,310,2013-01-20 13:55:00
8:15 AM,12.2,1.4,62,30.31,10.0,NW,13.8,-,N/A,,Clear,310,2013-01-20 14:15:00
8:35 AM,12.2,1.4,62,30.31,10.0,NW,10.4,-,N/A,,Clear,310,2013-01-20 14:35:00
8:55 AM,14.0,1.4,57,30.32,10.0,NW,12.7,-,N/A,,Clear,320,2013-01-20 14:55:00
9:15 AM,15.8,1.4,53,30.31,10.0,NNW,8.1,-,N/A,,Clear,330,2013-01-20 15:15:00
9:35 AM,15.8,1.4,53,30.32,10.0,NNW,6.9,-,N/A,,Partly Cloudy,330,2013-01-20 15:35:00
9:55 AM,15.8,3.2,58,30.33,10.0,WNW,9.2,-,N/A,,Clear,300,2013-01-20 15:55:00
10:15 AM,17.6,3.2,53,30.34,10.0,NW,10.4,-,N/A,,Clear,320,2013-01-20 16:15:00
10:35 AM,17.6,3.2,53,30.34,10.0,NW,8.1,-,N/A,,Clear,310,2013-01-20 16:35:00
10:55 AM,19.4,3.2,49,30.33,10.0,WNW,9.2,-,N/A,,Scattered Clouds,300,2013-01-20 16:55:00
11:15 AM,17.6,1.4,49,30.33,10.0,NW,10.4,-,N/A,,Scattered Clouds,320,2013-01-20 17:15:00
11:35 AM,19.4,3.2,49,30.32,10.0,NW,9.2,-,N/A,,Scattered Clouds,310,2013-01-20 17:35:00
12:15 PM,19.4,3.2,49,30.30,10.0,WNW,13.8,-,N/A,,Overcast,300,2013-01-20 18:15:00
12:35 PM,19.4,3.2,49,30.30,10.0,WNW,12.7,-,N/A,,Overcast,290,2013-01-20 18:35:00
12:55 PM,19.4,1.4,46,30.29,10.0,NW,13.8,-,N/A,,Overcast,310,2013-01-20 18:55:00
1:15 PM,19.4,1.4,46,30.28,10.0,WNW,10.4,-,N/A,,Overcast,300,2013-01-20 19:15:00
1:35 PM,19.4,1.4,46,30.28,10.0,NW,11.5,-,N/A,,Mostly Cloudy,310,2013-01-20 19:35:00
1:55 PM,19.4,3.2,49,30.29,10.0,NW,12.7,-,N/A,,Overcast,310,2013-01-20 19:55:00
2:15 PM,19.4,1.4,46,30.28,10.0,WNW,11.5,-,N/A,,Overcast,300,2013-01-20 20:15:00
2:35 PM,19.4,3.2,49,30.28,10.0,WNW,15.0,-,N/A,,Overcast,290,2013-01-20 20:35:00
2:55 PM,19.4,3.2,49,30.28,10.0,NW,12.7,17.3,N/A,,Overcast,310,2013-01-20 20:55:00
3:15 PM,19.4,3.2,49,30.28,10.0,West,13.8,-,N/A,,Mostly Cloudy,280,2013-01-20 21:15:00
3:35 PM,19.4,1.4,46,30.28,10.0,NW,12.7,-,N/A,,Overcast,310,2013-01-20 21:35:00
3:55 PM,17.6,1.4,49,30.28,10.0,WNW,12.7,17.3,N/A,,Overcast,300,2013-01-20 21:55:00
4:35 PM,17.6,1.4,49,30.29,10.0,West,15.0,-,N/A,,Scattered Clouds,280,2013-01-20 22:35:00
4:55 PM,17.6,1.4,49,30.29,10.0,WNW,10.4,-,N/A,,Mostly Cloudy,300,2013-01-20 22:55:00
5:15 PM,17.6,1.4,49,30.28,10.0,WNW,12.7,16.1,N/A,,Overcast,300,2013-01-20 23:15:00
5:35 PM,17.6,1.4,49,30.28,10.0,WNW,11.5,-,N/A,,Overcast,290,2013-01-20 23:35:00
5:55 PM,17.6,1.4,49,30.28,10.0,WNW,11.5,-,N/A,,Overcast,290,2013-01-20 23:55:00
6:35 PM,17.6,3.2,53,30.28,10.0,WNW,13.8,-,N/A,,Overcast,290,2013-01-21 00:35:00
6:55 PM,17.6,3.2,53,30.27,10.0,West,12.7,-,N/A,,Overcast,280,2013-01-21 00:55:00
7:15 PM,17.6,3.2,53,30.27,10.0,WNW,13.8,18.4,N/A,,Overcast,290,2013-01-21 01:15:00
7:35 PM,17.6,3.2,53,30.27,10.0,WNW,12.7,-,N/A,,Overcast,290,2013-01-21 01:35:00
7:55 PM,15.8,3.2,58,30.26,10.0,WNW,13.8,17.3,N/A,,Overcast,290,2013-01-21 01:55:00
8:15 PM,15.8,3.2,58,30.26,10.0,WNW,15.0,-,N/A,,Overcast,300,2013-01-21 02:15:00
8:35 PM,15.8,3.2,58,30.26,10.0,WNW,12.7,-,N/A,,Overcast,290,2013-01-21 02:35:00
8:55 PM,15.8,3.2,58,30.26,10.0,WNW,12.7,-,N/A,,Overcast,290,2013-01-21 02:55:00
9:15 PM,15.8,3.2,58,30.26,10.0,WNW,12.7,-,N/A,,Overcast,300,2013-01-21 03:15:00
9:35 PM,15.8,1.4,53,30.25,10.0,WNW,12.7,-,N/A,,Overcast,300,2013-01-21 03:35:00
9:55 PM,14.0,3.2,62,30.25,10.0,WNW,10.4,17.3,N/A,,Mostly Cloudy,300,2013-01-21 03:55:00
10:15 PM,14.0,3.2,62,30.25,10.0,WNW,13.8,-,N/A,,Partly Cloudy,290,2013-01-21 04:15:00
10:35 PM,12.2,3.2,67,30.25,10.0,WNW,13.8,-,N/A,,Scattered Clouds,290,2013-01-21 04:35:00
10:55 PM,12.2,3.2,67,30.25,10.0,WNW,15.0,18.4,N/A,,Partly Cloudy,290,2013-01-21 04:55:00
11:15 PM,12.2,3.2,67,30.24,10.0,WNW,13.8,-,N/A,,Scattered Clouds,290,2013-01-21 05:15:00
11:35 PM,12.2,3.2,67,30.24,10.0,WNW,16.1,-,N/A,,Scattered Clouds,290,2013-01-21 05:35:00
11:55 PM,12.2,3.2,67,30.23,10.0,WNW,16.1,-,N/A,,Mostly Cloudy,290,2013-01-21 05:55:00